Time,TemperatureF,DewpointF,PressureIn,WindDirection,WindDirectionDegrees,WindSpeedMPH,WindSpeedGustMPH,Humidity,HourlyPrecipIn,Conditions,Clouds,dailyrainin,SolarRadiationWatts/m^2,SoftwareType,DateUTC
2013-01-24 00:02:00,49.8,36.0,29.81,NW,304,9.0,17.0,59,0.00,,,0.00,0,Wunderground v.1.15,2013-01-23 23:02:00,
2013-01-24 00:08:00,49.6,35.8,29.82,NW,319,10.0,17.0,59,0.00,,,0.00,0,Wunderground v.1.15,2013-01-23 23:08:00,
2013-01-24 00:14:00,49.6,35.4,29.82,NNW,339,11.0,19.0,58,0.00,,,0.00,0,Wunderground v.1.15,2013-01-23 23:14:00,
2013-01-24 00:20:00,49.7,35.1,29.79,NNW,333,13.0,17.0,57,0.00,,,0.00,0,Wunderground v.1.15,2013-01-23 23:20:00,
2013-01-24 00:26:00,49.7,34.2,29.79,NW,310,14.0,17.0,55,0.00,,,0.00,0,Wunderground v.1.15,2013-01-23 23:26:00,
2013-01-24 00:32:00,49.7,33.7,29.78,NW,321,16.0,16.0,54,0.00,,,0.00,0,Wunderground v.1.15,2013-01-23 23:32:00,
2013-01-24 00:39:00,49.6,33.6,29.78,NNW,343,16.0,20.0,54,0.00,,,0.00,0,Wunderground v.1.15,2013-01-23 23:39:00,
2013-01-24 00:44:00,49.5,34.0,29.77,NNW,335,14.0,16.0,55,0.00,,,0.00,0,Wunderground v.1.15,2013-01-23 23:44:00,
2013-01-24 00:50:00,49.5,33.1,29.77,NNW,331,14.0,18.0,53,0.00,,,0.00,0,Wunderground v.1.15,2013-01-23 23:50:00,
2013-01-24 00:56:00,49.5,33.1,29.76,NNW,348,15.0,23.0,53,0.00,,,0.00,0,Wunderground v.1.15,2013-01-23 23:56:00,
2013-01-24 01:02:00,49.7,32.8,29.75,North,5,17.0,23.0,52,0.00,,,0.00,0,Wunderground v.1.15,2013-01-24 00:02:00,
2013-01-24 01:10:00,49.5,32.1,29.74,North,355,19.0,19.0,51,0.00,,,0.00,0,Wunderground v.1.15,2013-01-24 00:10:00,
2013-01-24 01:16:00,49.7,31.8,29.73,NW,325,17.0,25.0,50,0.00,,,0.00,0,Wunderground v.1.15,2013-01-24 00:16:00,
2013-01-24 01:22:00,49.8,30.9,29.72,NW,326,20.0,20.0,48,0.00,,,0.00,0,Wunderground v.1.15,2013-01-24 00:22:00,
2013-01-24 01:30:00,49.8,31.9,29.72,NNE,21,18.0,18.0,50,0.00,,,0.00,0,Wunderground v.1.15,2013-01-24 00:30:00,
2013-01-24 01:40:00,49.8,32.4,29.72,North,9,16.0,23.0,51,0.00,,,0.00,0,Wunderground v.1.15,2013-01-24 00:40:00,
2013-01-24 01:52:00,50.1,32.7,29.73,WNW,299,17.0,17.0,51,0.00,,,0.00,0,Wunderground v.1.15,2013-01-24 00:52:00,
2013-01-24 01:59:00,50.1,32.2,29.74,SW,229,12.0,13.0,50,0.00,,,0.00,0,Wunderground v.1.15,2013-01-24 00:59:00,
2013-01-24 02:04:00,49.7,32.8,29.75,SW,215,8.0,10.0,52,0.00,,,0.00,0,Wunderground v.1.15,2013-01-24 01:04:00,
2013-01-24 02:10:00,49.3,33.3,29.74,SE,127,5.0,5.0,54,0.00,,,0.00,0,Wunderground v.1.15,2013-01-24 01:10:00,
2013-01-24 02:16:00,48.8,33.3,29.75,SSE,157,4.0,13.0,55,0.00,,,0.00,0,Wunderground v.1.15,2013-01-24 01:16:00,
2013-01-24 02:22:00,49.0,33.1,29.74,SE,128,6.0,8.0,54,0.00,,,0.00,0,Wunderground v.1.15,2013-01-24 01:22:00,
2013-01-24 02:30:00,49.4,32.0,29.74,SW,226,6.0,6.0,51,0.00,,,0.00,0,Wunderground v.1.15,2013-01-24 01:30:00,
2013-01-24 02:36:00,49.3,32.4,29.74,SW,214,6.0,6.0,52,0.00,,,0.00,0,Wunderground v.1.15,2013-01-24 01:36:00,
2013-01-24 02:42:00,48.9,32.5,29.75,WSW,238,8.0,9.0,53,0.00,,,0.00,0,Wunderground v.1.15,2013-01-24 01:42:00,
2013-01-24 02:50:00,48.7,32.3,29.75,SW,236,6.0,6.0,53,0.00,,,0.00,0,Wunderground v.1.15,2013-01-24 01:50:00,
2013-01-24 02:56:00,48.3,31.9,29.74,WSW,245,6.0,9.0,53,0.00,,,0.00,0,Wunderground v.1.15,2013-01-24 01:56:00,
2013-01-24 03:02:00,48.7,30.9,29.74,WSW,254,7.0,10.0,50,0.00,,,0.00,0,Wunderground v.1.15,2013-01-24 02:02:00,
2013-01-24 03:09:00,48.8,31.0,29.74,WSW,248,9.0,11.0,50,0.00,,,0.00,0,Wunderground v.1.15,2013-01-24 02:09:00,
2013-01-24 03:14:00,49.1,31.2,29.74,West,259,9.0,10.0,50,0.00,,,0.00,0,Wunderground v.1.15,2013-01-24 02:14:00,
2013-01-24 03:20:00,49.3,31.9,29.73,WSW,246,9.0,11.0,51,0.00,,,0.00,0,Wunderground v.1.15,2013-01-24 02:20:00,
2013-01-24 03:26:00,49.4,33.0,29.73,WSW,248,9.0,11.0,53,0.00,,,0.00,0,Wunderground v.1.15,2013-01-24 02:26:00,
2013-01-24 03:32:00,49.7,33.2,29.73,WSW,246,8.0,8.0,53,0.00,,,0.00,0,Wunderground v.1.15,2013-01-24 02:32:00,
2013-01-24 03:42:00,49.7,33.7,29.72,WSW,241,11.0,11.0,54,0.00,,,0.00,0,Wunderground v.1.15,2013-01-24 02:42:00,
2013-01-24 03:48:00,49.8,33.8,29.72,WSW,250,11.0,11.0,54,0.00,,,0.00,0,Wunderground v.1.15,2013-01-24 02:48:00,
2013-01-24 04:00:00,50.0,33.5,29.72,WSW,251,10.0,12.0,53,0.00,,,0.00,0,Wunderground v.1.15,2013-01-24 03:00:00,
2013-01-24 04:06:00,49.7,33.7,29.71,WSW,249,9.0,12.0,54,0.00,,,0.00,0,Wunderground v.1.15,2013-01-24 03:06:00,
2013-01-24 04:18:00,49.8,35.2,29.71,WSW,240,10.0,13.0,57,0.00,,,0.00,0,Wunderground v.1.15,2013-01-24 03:18:00,
2013-01-24 04:24:00,49.6,35.8,29.71,WSW,254,9.0,9.0,59,0.00,,,0.00,0,Wunderground v.1.15,2013-01-24 03:24:00,
2013-01-24 04:30:00,49.5,36.2,29.71,WSW,245,7.0,7.0,60,0.00,,,0.00,0,Wunderground v.1.15,2013-01-24 03:30:00,
2013-01-24 04:39:00,49.7,37.2,29.70,WSW,246,8.0,10.0,62,0.00,,,0.00,0,Wunderground v.1.15,2013-01-24 03:39:00,
2013-01-24 04:46:00,49.6,38.7,29.70,SW,236,10.0,13.0,66,0.00,,,0.00,0,Wunderground v.1.15,2013-01-24 03:46:00,
2013-01-24 04:52:00,49.7,39.6,29.70,WSW,249,12.0,12.0,68,0.00,,,0.00,0,Wunderground v.1.15,2013-01-24 03:52:00,
2013-01-24 05:12:00,49.7,39.2,29.69,WSW,245,15.0,16.0,67,0.00,,,0.00,0,Wunderground v.1.15,2013-01-24 04:12:00,
2013-01-24 05:20:00,49.3,38.8,29.69,WSW,246,15.0,15.0,67,0.00,,,0.00,0,Wunderground v.1.15,2013-01-24 04:20:00,
2013-01-24 05:32:00,49.2,38.7,29.68,WSW,251,16.0,16.0,67,0.00,,,0.00,0,Wunderground v.1.15,2013-01-24 04:32:00,
2013-01-24 05:40:00,48.6,39.3,29.68,WSW,244,12.0,12.0,70,0.00,,,0.00,0,Wunderground v.1.15,2013-01-24 04:40:00,
2013-01-24 05:50:00,47.5,39.3,29.67,WSW,250,10.0,11.0,73,0.00,,,0.00,0,Wunderground v.1.15,2013-01-24 04:50:00,
2013-01-24 05:58:00,47.1,39.6,29.67,SW,234,10.0,11.0,75,0.00,,,0.00,0,Wunderground v.1.15,2013-01-24 04:58:00,
2013-01-24 06:00:00,47.0,39.8,29.67,WSW,242,10.0,10.0,76,0.00,,,0.00,0,Wunderground v.1.15,2013-01-24 05:00:00,
2013-01-24 06:02:00,46.9,39.7,29.66,SW,236,10.0,10.0,76,0.00,,,0.00,0,Wunderground v.1.15,2013-01-24 05:02:00,
2013-01-24 06:04:00,46.8,39.6,29.66,WSW,242,9.0,11.0,76,0.00,,,0.00,0,Wunderground v.1.15,2013-01-24 05:04:00,
2013-01-24 06:10:00,46.5,39.7,29.66,WSW,242,9.0,9.0,77,0.00,,,0.00,0,Wunderground v.1.15,2013-01-24 05:10:00,
2013-01-24 06:16:00,46.3,39.8,29.65,WSW,239,9.0,10.0,78,0.00,,,0.00,0,Wunderground v.1.15,2013-01-24 05:16:00,
2013-01-24 06:22:00,46.1,39.9,29.65,WSW,242,9.0,12.0,79,0.00,,,0.00,0,Wunderground v.1.15,2013-01-24 05:22:00,
2013-01-24 06:24:00,46.1,40.3,29.65,WSW,244,9.0,12.0,80,0.00,,,0.00,0,Wunderground v.1.15,2013-01-24 05:24:00,
2013-01-24 06:30:00,46.0,40.5,29.64,WSW,248,9.0,11.0,81,0.00,,,0.00,0,Wunderground v.1.15,2013-01-24 05:30:00,
2013-01-24 06:36:00,45.9,40.7,29.64,WSW,237,9.0,11.0,82,0.00,,,0.00,0,Wunderground v.1.15,2013-01-24 05:36:00,
2013-01-24 06:42:00,45.9,41.0,29.64,WSW,249,9.0,9.0,83,0.00,,,0.00,0,Wunderground v.1.15,2013-01-24 05:42:00,
2013-01-24 06:48:00,45.9,41.0,29.63,WSW,253,9.0,10.0,83,0.00,,,0.00,0,Wunderground v.1.15,2013-01-24 05:48:00,
2013-01-24 06:59:00,46.0,41.4,29.63,WSW,240,8.0,9.0,84,0.00,,,0.00,0,Wunderground v.1.15,2013-01-24 05:59:00,
2013-01-24 07:04:00,46.0,41.7,29.63,WSW,242,6.0,10.0,85,0.00,,,0.00,0,Wunderground v.1.15,2013-01-24 06:04:00,
2013-01-24 07:11:00,46.1,41.8,29.63,WSW,248,6.0,6.0,85,0.00,,,0.00,0,Wunderground v.1.15,2013-01-24 06:11:00,
2013-01-24 07:16:00,46.2,42.2,29.62,WSW,248,6.0,6.0,86,0.00,,,0.00,0,Wunderground v.1.15,2013-01-24 06:16:00,
2013-01-24 07:22:00,46.2,42.2,29.62,WSW,249,5.0,5.0,86,0.00,,,0.00,0,Wunderground v.1.15,2013-01-24 06:22:00,
2013-01-24 07:28:00,46.2,42.5,29.62,WSW,246,6.0,7.0,87,0.00,,,0.01,0,Wunderground v.1.15,2013-01-24 06:28:00,
2013-01-24 07:36:00,46.1,42.4,29.61,WSW,248,4.0,5.0,87,0.00,,,0.01,0,Wunderground v.1.15,2013-01-24 06:36:00,
2013-01-24 07:42:00,46.0,42.3,29.61,WSW,248,2.0,2.0,87,0.05,,,0.02,0,Wunderground v.1.15,2013-01-24 06:42:00,
2013-01-24 07:50:00,46.0,42.6,29.61,WSW,248,1.0,2.0,88,0.04,,,0.02,0,Wunderground v.1.15,2013-01-24 06:50:00,
2013-01-24 07:56:00,46.0,42.6,29.61,WSW,248,2.0,3.0,88,0.04,,,0.02,0,Wunderground v.1.15,2013-01-24 06:56:00,
2013-01-24 08:02:00,46.2,42.8,29.61,WSW,248,1.0,2.0,88,0.09,,,0.03,0,Wunderground v.1.15,2013-01-24 07:02:00,
2013-01-24 08:08:00,46.2,42.8,29.61,WSW,248,0.0,2.0,88,0.06,,,0.03,0,Wunderground v.1.15,2013-01-24 07:08:00,
2013-01-24 08:16:00,46.4,43.3,29.60,WSW,247,0.0,2.0,89,0.05,,,0.04,0,Wunderground v.1.15,2013-01-24 07:16:00,
2013-01-24 08:22:00,46.3,43.2,29.60,WSW,248,1.0,1.0,89,0.05,,,0.04,0,Wunderground v.1.15,2013-01-24 07:22:00,
2013-01-24 08:30:00,46.3,43.2,29.60,WSW,248,1.0,2.0,89,0.00,,,0.05,5,Wunderground v.1.15,2013-01-24 07:30:00,
2013-01-24 08:36:00,46.5,43.4,29.59,WSW,248,3.0,4.0,89,0.00,,,0.05,12,Wunderground v.1.15,2013-01-24 07:36:00,
2013-01-24 08:42:00,46.8,43.7,29.59,WSW,240,4.0,4.0,89,0.06,,,0.06,12,Wunderground v.1.15,2013-01-24 07:42:00,
2013-01-24 08:49:00,46.9,43.8,29.59,WSW,240,2.0,4.0,89,0.10,,,0.06,11,Wunderground v.1.15,2013-01-24 07:49:00,
2013-01-24 08:56:00,46.5,43.4,29.59,North,5,3.0,6.0,89,0.05,,,0.06,9,Wunderground v.1.15,2013-01-24 07:56:00,
2013-01-24 09:02:00,46.1,43.0,29.60,NNE,17,4.0,7.0,89,0.05,,,0.07,0,Wunderground v.1.15,2013-01-24 08:02:00,
2013-01-24 09:08:00,45.8,42.7,29.61,NNE,32,4.0,10.0,89,0.06,,,0.08,0,Wunderground v.1.15,2013-01-24 08:08:00,
2013-01-24 09:14:00,45.7,42.9,29.61,NNE,29,6.0,6.0,90,0.39,,,0.12,0,Wunderground v.1.15,2013-01-24 08:14:00,
2013-01-24 09:20:00,46.1,43.3,29.59,ENE,63,6.0,6.0,90,0.39,,,0.14,0,Wunderground v.1.15,2013-01-24 08:20:00,
2013-01-24 09:26:00,46.2,43.4,29.58,NNE,26,6.0,14.0,90,0.31,,,0.16,5,Wunderground v.1.15,2013-01-24 08:26:00,
2013-01-24 09:32:00,46.4,43.6,29.59,NNE,33,10.0,13.0,90,0.49,,,0.21,5,Wunderground v.1.15,2013-01-24 08:32:00,
2013-01-24 09:39:00,46.4,43.6,29.59,North,355,11.0,13.0,90,0.54,,,0.27,9,Wunderground v.1.15,2013-01-24 08:39:00,
2013-01-24 09:46:00,46.5,43.4,29.58,NNW,342,10.0,14.0,89,0.90,,,0.33,11,Wunderground v.1.15,2013-01-24 08:46:00,
2013-01-24 09:52:00,46.9,43.8,29.57,NNW,346,10.0,10.0,89,0.23,,,0.35,14,Wunderground v.1.15,2013-01-24 08:52:00,
2013-01-24 09:58:00,47.3,43.9,29.58,NNW,336,14.0,22.0,88,0.16,,,0.37,26,Wunderground v.1.15,2013-01-24 08:58:00,
2013-01-24 10:04:00,47.5,43.8,29.57,NW,323,15.0,21.0,87,0.14,,,0.38,32,Wunderground v.1.15,2013-01-24 09:04:00,
2013-01-24 10:10:00,47.6,43.6,29.58,North,5,13.0,13.0,86,0.09,,,0.39,46,Wunderground v.1.15,2013-01-24 09:10:00,
2013-01-24 10:16:00,47.7,43.7,29.58,NNW,341,10.0,13.0,86,0.08,,,0.39,53,Wunderground v.1.15,2013-01-24 09:16:00,
2013-01-24 10:22:00,47.9,43.6,29.58,NNW,342,10.0,10.0,85,0.04,,,0.39,53,Wunderground v.1.15,2013-01-24 09:22:00,
2013-01-24 10:29:00,48.1,43.8,29.58,NE,36,9.0,10.0,85,0.00,,,0.39,56,Wunderground v.1.15,2013-01-24 09:29:00,
2013-01-24 10:36:00,48.2,43.6,29.58,NNW,340,9.0,11.0,84,0.00,,,0.39,60,Wunderground v.1.15,2013-01-24 09:36:00,
2013-01-24 10:42:00,48.4,43.5,29.59,NNW,333,10.0,12.0,83,0.00,,,0.39,56,Wunderground v.1.15,2013-01-24 09:42:00,
2013-01-24 10:48:00,48.7,43.8,29.59,NW,308,9.0,12.0,83,0.00,,,0.39,51,Wunderground v.1.15,2013-01-24 09:48:00,
2013-01-24 10:56:00,48.8,43.5,29.59,NW,314,9.0,10.0,82,0.00,,,0.39,58,Wunderground v.1.15,2013-01-24 09:56:00,
2013-01-24 11:02:00,48.9,43.6,29.58,WNW,295,12.0,16.0,82,0.00,,,0.39,62,Wunderground v.1.15,2013-01-24 10:02:00,
2013-01-24 11:10:00,48.9,44.0,29.59,NNW,332,10.0,10.0,83,0.00,,,0.39,77,Wunderground v.1.15,2013-01-24 10:10:00,
2013-01-24 11:16:00,48.9,44.0,29.59,NW,322,9.0,13.0,83,0.05,,,0.40,121,Wunderground v.1.15,2013-01-24 10:16:00,
2013-01-24 11:22:00,49.0,44.1,29.59,NW,309,8.0,8.0,83,0.05,,,0.40,125,Wunderground v.1.15,2013-01-24 10:22:00,
2013-01-24 11:29:00,49.2,44.3,29.59,NNW,337,5.0,8.0,83,0.04,,,0.40,213,Wunderground v.1.15,2013-01-24 10:29:00,
2013-01-24 11:36:00,49.3,44.0,29.60,WNW,300,6.0,7.0,82,0.00,,,0.40,100,Wunderground v.1.15,2013-01-24 10:36:00,
2013-01-24 11:42:00,49.3,44.0,29.60,NNE,25,7.0,8.0,82,0.00,,,0.41,111,Wunderground v.1.15,2013-01-24 10:42:00,
2013-01-24 11:48:00,49.3,43.7,29.61,NNE,21,6.0,8.0,81,0.32,,,0.43,49,Wunderground v.1.15,2013-01-24 10:48:00,
2013-01-24 11:54:00,49.2,43.9,29.61,NNW,333,7.0,9.0,82,0.28,,,0.43,74,Wunderground v.1.15,2013-01-24 10:54:00,
2013-01-24 12:00:00,48.9,43.6,29.60,NNW,338,9.0,9.0,82,0.11,,,0.45,128,Wunderground v.1.15,2013-01-24 11:00:00,
2013-01-24 12:06:00,48.8,43.2,29.61,NE,42,8.0,9.0,81,0.09,,,0.45,84,Wunderground v.1.15,2013-01-24 11:06:00,
2013-01-24 12:12:00,48.6,43.4,29.61,NW,309,7.0,7.0,82,0.05,,,0.45,74,Wunderground v.1.15,2013-01-24 11:12:00,
2013-01-24 12:18:00,48.4,43.2,29.61,NNE,33,4.0,7.0,82,0.04,,,0.46,105,Wunderground v.1.15,2013-01-24 11:18:00,
2013-01-24 12:26:00,48.5,43.3,29.63,WNW,298,3.0,4.0,82,0.04,,,0.46,113,Wunderground v.1.15,2013-01-24 11:26:00,
2013-01-24 12:32:00,48.6,43.4,29.62,WNW,283,2.0,8.0,82,0.04,,,0.46,156,Wunderground v.1.15,2013-01-24 11:32:00,
2013-01-24 12:38:00,48.5,43.3,29.62,North,5,5.0,8.0,82,0.30,,,0.49,135,Wunderground v.1.15,2013-01-24 11:38:00,
2013-01-24 12:44:00,48.1,43.2,29.62,NNW,344,7.0,10.0,83,0.41,,,0.51,137,Wunderground v.1.15,2013-01-24 11:44:00,
2013-01-24 12:50:00,47.8,42.9,29.62,NNE,19,11.0,12.0,83,0.15,,,0.52,178,Wunderground v.1.15,2013-01-24 11:50:00,
2013-01-24 12:56:00,47.9,43.3,29.62,NNW,333,12.0,12.0,84,0.07,,,0.52,186,Wunderground v.1.15,2013-01-24 11:56:00,
2013-01-24 13:02:00,48.3,43.4,29.61,North,11,11.0,14.0,83,0.04,,,0.52,206,Wunderground v.1.15,2013-01-24 12:02:00,
2013-01-24 13:08:00,48.7,43.5,29.61,NW,322,13.0,14.0,82,0.00,,,0.52,503,Wunderground v.1.15,2013-01-24 12:08:00,
2013-01-24 13:14:00,49.2,43.6,29.61,North,5,14.0,19.0,81,0.45,,,0.54,288,Wunderground v.1.15,2013-01-24 12:14:00,
2013-01-24 13:20:00,48.9,43.3,29.61,NNW,342,13.0,13.0,81,0.19,,,0.55,218,Wunderground v.1.15,2013-01-24 12:20:00,
2013-01-24 13:26:00,48.2,42.6,29.61,North,5,12.0,18.0,81,0.61,,,0.62,153,Wunderground v.1.15,2013-01-24 12:26:00,
2013-01-24 13:32:00,47.0,41.5,29.62,NE,47,12.0,14.0,81,0.99,,,0.69,141,Wunderground v.1.15,2013-01-24 12:32:00,
2013-01-24 13:39:00,46.0,41.1,29.63,NNE,15,11.0,14.0,83,0.35,,,0.74,33,Wunderground v.1.15,2013-01-24 12:39:00,
2013-01-24 13:46:00,46.1,41.8,29.62,North,5,10.0,12.0,85,0.14,,,0.75,290,Wunderground v.1.15,2013-01-24 12:46:00,
2013-01-24 13:52:00,46.9,42.6,29.61,NNE,14,12.0,12.0,85,0.20,,,0.76,244,Wunderground v.1.15,2013-01-24 12:52:00,
2013-01-24 14:00:00,47.6,43.0,29.61,North,360,14.0,14.0,84,0.10,,,0.77,148,Wunderground v.1.15,2013-01-24 13:00:00,
2013-01-24 14:06:00,48.0,43.1,29.60,North,5,14.0,21.0,83,0.05,,,0.77,661,Wunderground v.1.15,2013-01-24 13:06:00,
2013-01-24 14:12:00,49.1,43.5,29.61,North,360,15.0,20.0,81,0.04,,,0.77,578,Wunderground v.1.15,2013-01-24 13:12:00,
2013-01-24 14:18:00,49.7,43.8,29.61,NNE,24,16.0,26.0,80,0.00,,,0.77,250,Wunderground v.1.15,2013-01-24 13:18:00,
2013-01-24 14:26:00,50.0,43.7,29.60,NE,50,14.0,16.0,79,0.00,,,0.77,476,Wunderground v.1.15,2013-01-24 13:26:00,
2013-01-24 14:32:00,50.4,43.1,29.61,North,5,14.0,19.0,76,0.00,,,0.77,466,Wunderground v.1.15,2013-01-24 13:32:00,
2013-01-24 14:38:00,50.8,43.2,29.61,NNE,17,14.0,27.0,75,0.00,,,0.77,494,Wunderground v.1.15,2013-01-24 13:38:00,
2013-01-24 14:46:00,50.8,43.2,29.61,NE,44,14.0,24.0,75,0.00,,,0.77,501,Wunderground v.1.15,2013-01-24 13:46:00,
2013-01-24 14:52:00,50.7,42.7,29.61,NNE,19,12.0,14.0,74,0.00,,,0.77,497,Wunderground v.1.15,2013-01-24 13:52:00,
2013-01-24 14:58:00,50.8,42.5,29.62,NNE,32,12.0,14.0,73,0.00,,,0.77,468,Wunderground v.1.15,2013-01-24 13:58:00,
2013-01-24 15:06:00,51.1,42.0,29.62,North,9,12.0,19.0,71,0.00,,,0.77,494,Wunderground v.1.15,2013-01-24 14:06:00,
2013-01-24 15:12:00,51.4,41.9,29.63,North,355,10.0,16.0,70,0.00,,,0.77,494,Wunderground v.1.15,2013-01-24 14:12:00,
2013-01-24 15:20:00,51.4,41.9,29.63,North,355,12.0,12.0,70,0.00,,,0.77,431,Wunderground v.1.15,2013-01-24 14:20:00,
2013-01-24 15:26:00,51.3,41.8,29.63,North,355,12.0,13.0,70,0.00,,,0.77,410,Wunderground v.1.15,2013-01-24 14:26:00,
2013-01-24 15:32:00,51.3,41.8,29.63,NW,321,10.0,11.0,70,0.00,,,0.77,403,Wunderground v.1.15,2013-01-24 14:32:00,
2013-01-24 15:38:00,51.6,42.5,29.63,NNE,32,7.0,11.0,71,0.00,,,0.77,397,Wunderground v.1.15,2013-01-24 14:38:00,
2013-01-24 15:46:00,52.1,42.6,29.64,North,360,6.0,8.0,70,0.00,,,0.77,404,Wunderground v.1.15,2013-01-24 14:46:00,
2013-01-24 15:52:00,52.3,42.4,29.65,NNE,29,8.0,8.0,69,0.00,,,0.77,388,Wunderground v.1.15,2013-01-24 14:52:00,
2013-01-24 16:00:00,52.1,42.2,29.65,NNE,30,9.0,9.0,69,0.00,,,0.77,364,Wunderground v.1.15,2013-01-24 15:00:00,
2013-01-24 16:06:00,52.2,42.3,29.66,North,355,9.0,12.0,69,0.00,,,0.77,334,Wunderground v.1.15,2013-01-24 15:06:00,
2013-01-24 16:12:00,51.5,41.7,29.66,NE,47,10.0,12.0,69,0.00,,,0.77,63,Wunderground v.1.15,2013-01-24 15:12:00,
2013-01-24 16:20:00,50.2,41.2,29.66,NE,37,8.0,8.0,71,0.00,,,0.77,46,Wunderground v.1.15,2013-01-24 15:20:00,
2013-01-24 16:26:00,49.8,41.1,29.66,NW,323,7.0,8.0,72,0.00,,,0.77,47,Wunderground v.1.15,2013-01-24 15:26:00,
2013-01-24 16:32:00,49.6,40.9,29.66,NNW,339,7.0,8.0,72,0.00,,,0.77,42,Wunderground v.1.15,2013-01-24 15:32:00,
2013-01-24 16:38:00,49.4,40.7,29.67,NW,321,5.0,10.0,72,0.00,,,0.77,35,Wunderground v.1.15,2013-01-24 15:38:00,
2013-01-24 16:44:00,49.3,41.0,29.67,NW,323,4.0,5.0,73,0.00,,,0.77,37,Wunderground v.1.15,2013-01-24 15:44:00,
2013-01-24 16:50:00,49.2,40.9,29.68,NNW,331,3.0,7.0,73,0.00,,,0.77,35,Wunderground v.1.15,2013-01-24 15:50:00,
2013-01-24 16:56:00,49.2,40.9,29.67,North,360,4.0,7.0,73,0.00,,,0.77,37,Wunderground v.1.15,2013-01-24 15:56:00,
2013-01-24 17:02:00,49.5,41.2,29.68,North,5,7.0,11.0,73,0.00,,,0.77,107,Wunderground v.1.15,2013-01-24 16:02:00,
2013-01-24 17:08:00,50.1,41.8,29.68,North,360,6.0,11.0,73,0.00,,,0.77,84,Wunderground v.1.15,2013-01-24 16:08:00,
2013-01-24 17:14:00,50.3,41.6,29.69,North,360,5.0,6.0,72,0.00,,,0.77,84,Wunderground v.1.15,2013-01-24 16:14:00,
2013-01-24 17:20:00,50.5,41.8,29.69,NNE,24,5.0,5.0,72,0.00,,,0.77,67,Wunderground v.1.15,2013-01-24 16:20:00,
2013-01-24 17:26:00,50.4,41.3,29.69,NW,325,5.0,5.0,71,0.00,,,0.77,51,Wunderground v.1.15,2013-01-24 16:26:00,
2013-01-24 17:32:00,50.2,41.2,29.69,NNW,340,5.0,6.0,71,0.00,,,0.77,35,Wunderground v.1.15,2013-01-24 16:32:00,
2013-01-24 17:39:00,49.8,40.8,29.70,NNE,22,6.0,6.0,71,0.00,,,0.77,25,Wunderground v.1.15,2013-01-24 16:39:00,
2013-01-24 17:44:00,49.5,40.5,29.70,NNW,348,5.0,6.0,71,0.00,,,0.77,16,Wunderground v.1.15,2013-01-24 16:44:00,
2013-01-24 17:50:00,49.1,40.1,29.70,NNW,333,4.0,4.0,71,0.00,,,0.77,9,Wunderground v.1.15,2013-01-24 16:50:00,
2013-01-24 17:56:00,48.8,40.2,29.70,NNW,341,4.0,5.0,72,0.00,,,0.77,7,Wunderground v.1.15,2013-01-24 16:56:00,
2013-01-24 18:02:00,48.7,40.1,29.70,NNW,343,3.0,3.0,72,0.00,,,0.77,0,Wunderground v.1.15,2013-01-24 17:02:00,
2013-01-24 18:08:00,48.4,39.4,29.70,NNW,342,1.0,3.0,71,0.00,,,0.77,0,Wunderground v.1.15,2013-01-24 17:08:00,
2013-01-24 18:14:00,48.2,39.6,29.70,NNW,343,0.0,1.0,72,0.00,,,0.77,0,Wunderground v.1.15,2013-01-24 17:14:00,
2013-01-24 18:20:00,48.0,39.4,29.70,NNW,342,1.0,1.0,72,0.00,,,0.77,0,Wunderground v.1.15,2013-01-24 17:20:00,
2013-01-24 18:26:00,47.9,39.7,29.70,NNW,343,1.0,1.0,73,0.00,,,0.77,0,Wunderground v.1.15,2013-01-24 17:26:00,
2013-01-24 18:32:00,47.7,39.5,29.71,NNW,343,1.0,1.0,73,0.00,,,0.77,0,Wunderground v.1.15,2013-01-24 17:32:00,
2013-01-24 18:39:00,47.6,39.7,29.71,NNW,343,2.0,2.0,74,0.00,,,0.77,0,Wunderground v.1.15,2013-01-24 17:39:00,
2013-01-24 18:44:00,47.6,39.7,29.72,NW,323,3.0,7.0,74,0.00,,,0.77,0,Wunderground v.1.15,2013-01-24 17:44:00,
2013-01-24 18:50:00,47.7,39.8,29.72,NNW,330,4.0,4.0,74,0.00,,,0.77,0,Wunderground v.1.15,2013-01-24 17:50:00,
2013-01-24 18:56:00,47.4,39.5,29.72,East,80,4.0,4.0,74,0.00,,,0.77,0,Wunderground v.1.15,2013-01-24 17:56:00,
2013-01-24 19:02:00,47.0,39.5,29.72,ENE,78,4.0,4.0,75,0.00,,,0.77,0,Wunderground v.1.15,2013-01-24 18:02:00,
2013-01-24 19:08:00,46.7,39.5,29.72,ENE,67,5.0,5.0,76,0.00,,,0.77,0,Wunderground v.1.15,2013-01-24 18:08:00,
2013-01-24 19:14:00,46.7,39.5,29.73,ENE,59,4.0,5.0,76,0.00,,,0.77,0,Wunderground v.1.15,2013-01-24 18:14:00,
2013-01-24 19:20:00,46.6,39.4,29.73,ENE,59,3.0,3.0,76,0.00,,,0.77,0,Wunderground v.1.15,2013-01-24 18:20:00,
2013-01-24 19:26:00,46.5,39.3,29.74,ENE,59,2.0,3.0,76,0.00,,,0.77,0,Wunderground v.1.15,2013-01-24 18:26:00,
2013-01-24 19:32:00,46.4,39.2,29.74,ENE,59,2.0,2.0,76,0.00,,,0.77,0,Wunderground v.1.15,2013-01-24 18:32:00,
2013-01-24 19:38:00,46.3,39.1,29.74,ENE,59,1.0,2.0,76,0.00,,,0.77,0,Wunderground v.1.15,2013-01-24 18:38:00,
2013-01-24 19:44:00,46.1,39.0,29.74,ENE,59,1.0,2.0,76,0.00,,,0.77,0,Wunderground v.1.15,2013-01-24 18:44:00,
2013-01-24 19:50:00,46.0,38.9,29.74,ENE,59,2.0,3.0,76,0.00,,,0.77,0,Wunderground v.1.15,2013-01-24 18:50:00,
2013-01-24 19:56:00,46.1,39.0,29.74,ENE,59,3.0,4.0,76,0.00,,,0.77,0,Wunderground v.1.15,2013-01-24 18:56:00,
2013-01-24 20:02:00,46.0,38.9,29.74,ENE,59,4.0,5.0,76,0.00,,,0.77,0,Wunderground v.1.15,2013-01-24 19:02:00,
2013-01-24 20:08:00,46.5,39.3,29.74,ENE,59,4.0,5.0,76,0.00,,,0.77,0,Wunderground v.1.15,2013-01-24 19:08:00,
2013-01-24 20:14:00,46.8,39.3,29.74,ENE,59,3.0,4.0,75,0.00,,,0.77,0,Wunderground v.1.15,2013-01-24 19:14:00,
2013-01-24 20:20:00,46.9,39.4,29.74,ENE,59,2.0,2.0,75,0.00,,,0.77,0,Wunderground v.1.15,2013-01-24 19:20:00,
2013-01-24 20:26:00,46.8,39.3,29.74,ENE,59,0.0,2.0,75,0.00,,,0.77,0,Wunderground v.1.15,2013-01-24 19:26:00,
2013-01-24 20:32:00,46.4,38.9,29.74,ENE,59,1.0,2.0,75,0.00,,,0.77,0,Wunderground v.1.15,2013-01-24 19:32:00,
2013-01-24 20:38:00,46.1,39.0,29.74,ENE,59,2.0,3.0,76,0.00,,,0.77,0,Wunderground v.1.15,2013-01-24 19:38:00,
2013-01-24 20:46:00,45.9,38.8,29.75,ENE,59,2.0,2.0,76,0.00,,,0.77,0,Wunderground v.1.15,2013-01-24 19:46:00,
2013-01-24 20:52:00,45.8,39.0,29.75,ENE,59,2.0,2.0,77,0.00,,,0.77,0,Wunderground v.1.15,2013-01-24 19:52:00,
2013-01-24 20:59:00,45.6,38.8,29.75,ENE,59,1.0,3.0,77,0.00,,,0.77,0,Wunderground v.1.15,2013-01-24 19:59:00,
2013-01-24 21:04:00,45.5,39.0,29.75,ENE,59,2.0,3.0,78,0.00,,,0.77,0,Wunderground v.1.15,2013-01-24 20:04:00,
2013-01-24 21:10:00,45.4,38.9,29.75,ENE,59,2.0,3.0,78,0.00,,,0.77,0,Wunderground v.1.15,2013-01-24 20:10:00,
2013-01-24 21:16:00,45.3,38.8,29.75,ENE,59,2.0,3.0,78,0.00,,,0.77,0,Wunderground v.1.15,2013-01-24 20:16:00,
2013-01-24 21:22:00,45.2,38.7,29.75,ENE,59,2.0,2.0,78,0.00,,,0.77,0,Wunderground v.1.15,2013-01-24 20:22:00,
2013-01-24 21:28:00,45.0,38.9,29.75,ENE,59,2.0,3.0,79,0.00,,,0.77,0,Wunderground v.1.15,2013-01-24 20:28:00,
2013-01-24 21:34:00,44.9,38.8,29.75,ENE,59,3.0,3.0,79,0.00,,,0.77,0,Wunderground v.1.15,2013-01-24 20:34:00,
2013-01-24 21:40:00,45.0,38.9,29.75,NE,46,3.0,4.0,79,0.00,,,0.77,0,Wunderground v.1.15,2013-01-24 20:40:00,
2013-01-24 21:46:00,44.8,39.0,29.75,NNW,342,5.0,5.0,80,0.00,,,0.78,0,Wunderground v.1.15,2013-01-24 20:46:00,
2013-01-24 21:52:00,44.7,38.9,29.75,NNW,342,4.0,4.0,80,0.00,,,0.78,0,Wunderground v.1.15,2013-01-24 20:52:00,
2013-01-24 21:58:00,44.6,39.1,29.75,NNW,333,4.0,6.0,81,0.00,,,0.78,0,Wunderground v.1.15,2013-01-24 20:58:00,
2013-01-24 22:04:00,44.4,39.2,29.76,NNW,329,5.0,5.0,82,0.00,,,0.79,0,Wunderground v.1.15,2013-01-24 21:04:00,
2013-01-24 22:10:00,44.6,39.8,29.75,NNW,329,3.0,3.0,83,0.22,,,0.80,0,Wunderground v.1.15,2013-01-24 21:10:00,
2013-01-24 22:16:00,44.9,40.4,29.75,NNW,329,4.0,5.0,84,0.07,,,0.80,0,Wunderground v.1.15,2013-01-24 21:16:00,
2013-01-24 22:22:00,44.6,40.1,29.75,NNW,329,5.0,5.0,84,0.04,,,0.80,0,Wunderground v.1.15,2013-01-24 21:22:00,
2013-01-24 22:28:00,44.1,39.6,29.75,NNW,329,4.0,5.0,84,0.00,,,0.80,0,Wunderground v.1.15,2013-01-24 21:28:00,
2013-01-24 22:36:00,44.1,39.9,29.75,NNW,329,4.0,5.0,85,0.00,,,0.80,0,Wunderground v.1.15,2013-01-24 21:36:00,
2013-01-24 22:42:00,44.2,40.3,29.75,NNW,329,3.0,3.0,86,0.00,,,0.80,0,Wunderground v.1.15,2013-01-24 21:42:00,
2013-01-24 22:48:00,44.4,40.5,29.75,NNW,329,2.0,4.0,86,0.00,,,0.80,0,Wunderground v.1.15,2013-01-24 21:48:00,
2013-01-24 22:54:00,44.6,40.7,29.75,NNW,329,2.0,4.0,86,0.00,,,0.80,0,Wunderground v.1.15,2013-01-24 21:54:00,
2013-01-24 23:00:00,44.6,40.7,29.75,NNW,329,2.0,4.0,86,0.00,,,0.80,0,Wunderground v.1.15,2013-01-24 22:00:00,
2013-01-24 23:06:00,44.5,40.6,29.76,North,355,3.0,4.0,86,0.00,,,0.80,0,Wunderground v.1.15,2013-01-24 22:06:00,
2013-01-24 23:12:00,44.1,40.2,29.76,East,88,6.0,13.0,86,0.26,,,0.82,0,Wunderground v.1.15,2013-01-24 22:12:00,
2013-01-24 23:18:00,41.8,37.6,29.77,ENE,63,9.0,13.0,85,0.41,,,0.84,0,Wunderground v.1.15,2013-01-24 22:18:00,
2013-01-24 23:26:00,40.7,37.1,29.78,NE,42,7.0,9.0,87,0.38,,,0.89,0,Wunderground v.1.15,2013-01-24 22:26:00,
2013-01-24 23:32:00,40.1,36.5,29.79,ENE,78,10.0,31.0,87,0.44,,,0.92,0,Wunderground v.1.15,2013-01-24 22:32:00,
2013-01-24 23:38:00,39.8,36.5,29.79,NE,45,16.0,31.0,88,0.34,,,0.95,0,Wunderground v.1.15,2013-01-24 22:38:00,
2013-01-24 23:44:00,39.9,36.9,29.80,ENE,65,19.0,28.0,89,0.23,,,0.97,0,Wunderground v.1.15,2013-01-24 22:44:00,
2013-01-24 23:50:00,40.2,37.2,29.82,ENE,68,19.0,19.0,89,0.17,,,0.98,0,Wunderground v.1.15,2013-01-24 22:50:00,
2013-01-24 23:56:00,40.2,37.2,29.82,ENE,57,16.0,19.0,89,0.38,,,1.01,0,Wunderground v.1.15,2013-01-24 22:56:00,